User: anonymous   Login
Location: Unspecified
(0.0000°N, 0.0000°E)
Time: 18:18:22
(UTC+00:00)
Language:

NOAA 15 - Orbit

View from above orbital plane
View from above orbital plane
View from above satellite
View from above satellite

Ground track
Ground track

The orbit data is extracted from the following two-line orbital elements,

1 25338U 98030A   22225.10812076  .00000127  00000-0  71176-4 0  9995
2 25338  98.6416 253.8948 0011336 128.9232 231.2961 14.26160360261346
Epoch (UTC): 13 August 2022 02:35:41
Eccentricity: 0.0011336
inclination: 98.6416°
perigee height: 796 km
apogee height: 813 km
right ascension of ascending node: 253.8948°
argument of perigee: 128.9232°
revolutions per day: 14.26160360
mean anomaly at epoch: 231.2961°
orbit number at epoch: 26134

The dashed part of the orbit path shows where the satellite is in the earth's shadow,  

DLR